When you browse on this site, cookies collect data to enhance your experience and personalize the content and advertising you see.
Visit our Privacy Policy to learn more. By continuing to use the site, you agree to this use of cookies and data.
  • In Österreich
  • Länderverzeichnis
  • Für 7 Tage
  • Wassertemperatur
  • Wetterkarte
  • News
  • Widgets
  • user-avatar
    Anmelden

    Stündliche Wetter Uige

    Heute, 22 Januar, Mittwoch

    Zeit Temperatur Niederschläge Wind Luftdruck Luftfeuchtigkeit
    00:00 +20°C° 1.1 mm 0 m/S 691 mmHg 97%
    01:00 +20°C° 0 mm 0 m/S 691 mmHg 98%
    02:00 +20°C° 0.2 mm 0 m/S 690 mmHg 98%
    03:00 +20°C° 0.2 mm 0 m/S 690 mmHg 98%
    04:00 +21°C° 0.2 mm 0 m/S 690 mmHg 99%
    05:00 +21°C° 0 mm 0 m/S 691 mmHg 98%
    06:00 +21°C° 0 mm 0 m/S 691 mmHg 98%
    07:00 +21°C° 0 mm 0 m/S 692 mmHg 97%
    08:00 +23°C° 0.3 mm 0 m/S 692 mmHg 92%
    09:00 +26°C° 0.3 mm 1 m/S 692 mmHg 87%
    10:00 +28°C° 0.3 mm 1 m/S 693 mmHg 82%
    11:00 +27°C° 1.6 mm 1 m/S 692 mmHg 85%
    12:00 +27°C° 1.6 mm 1 m/S 692 mmHg 88%
    13:00 +27°C° 1.6 mm 1 m/S 691 mmHg 91%
    14:00 +26°C° 1.2 mm 1 m/S 690 mmHg 93%
    15:00 +25°C° 1.2 mm 1 m/S 690 mmHg 94%
    16:00 +24°C° 1.2 mm 1 m/S 689 mmHg 96%
    17:00 +24°C° 0 mm 1 m/S 689 mmHg 96%
    18:00 +23°C° 0 mm 1 m/S 689 mmHg 96%
    19:00 +23°C° 0 mm 1 m/S 690 mmHg 97%
    20:00 +23°C° 0 mm 1 m/S 690 mmHg 97%
    21:00 +23°C° 0 mm 1 m/S 690 mmHg 97%
    22:00 +22°C° 0 mm 1 m/S 691 mmHg 97%
    23:00 +22°C° 0 mm 1 m/S 691 mmHg 97%

    Morgen, 23 Januar, Donnerstag

    Zeit Temperatur Niederschläge Wind Luftdruck Luftfeuchtigkeit
    00:00 +22°C° 0 mm 1 m/S 691 mmHg 97%
    01:00 +22°C° 0 mm 1 m/S 690 mmHg 97%
    02:00 +22°C° 0 mm 1 m/S 690 mmHg 97%
    03:00 +22°C° 0 mm 1 m/S 690 mmHg 97%
    04:00 +21°C° 0 mm 1 m/S 690 mmHg 97%
    05:00 +22°C° 0 mm 1 m/S 690 mmHg 97%
    06:00 +22°C° 0 mm 1 m/S 691 mmHg 96%
    07:00 +20°C° 0 mm 0 m/S 691 mmHg 96%
    08:00 +23°C° 0 mm 1 m/S 691 mmHg 90%
    09:00 +24°C° 0 mm 1 m/S 692 mmHg 84%
    10:00 +26°C° 0 mm 1 m/S 692 mmHg 78%
    11:00 +27°C° 0.1 mm 1 m/S 692 mmHg 71%
    12:00 +29°C° 0.1 mm 2 m/S 691 mmHg 63%
    13:00 +30°C° 0.1 mm 2 m/S 691 mmHg 56%
    14:00 +29°C° 0.5 mm 2 m/S 690 mmHg 65%
    15:00 +28°C° 0.5 mm 2 m/S 689 mmHg 74%
    16:00 +27°C° 0.5 mm 2 m/S 689 mmHg 84%
    17:00 +26°C° 0.5 mm 2 m/S 689 mmHg 87%
    18:00 +24°C° 0.5 mm 1 m/S 689 mmHg 91%
    19:00 +21°C° 0.5 mm 0 m/S 690 mmHg 95%
    20:00 +20°C° 0.1 mm 0 m/S 690 mmHg 95%
    21:00 +20°C° 0.1 mm 0 m/S 690 mmHg 95%
    22:00 +20°C° 0.1 mm 0 m/S 691 mmHg 95%
    23:00 +19°C° 0 mm 0 m/S 691 mmHg 96%

    übermorgen, 24 Januar, Freitag

    Zeit Temperatur Niederschläge Wind Luftdruck Luftfeuchtigkeit
    00:00 +19°C° 0 mm 0 m/S 690 mmHg 96%
    01:00 +19°C° 0 mm 0 m/S 690 mmHg 96%
    02:00 +19°C° 0 mm 0 m/S 690 mmHg 96%
    03:00 +19°C° 0 mm 0 m/S 690 mmHg 96%
    04:00 +19°C° 0 mm 0 m/S 690 mmHg 96%
    05:00 +20°C° 0 mm 0 m/S 690 mmHg 95%
    06:00 +20°C° 0 mm 0 m/S 691 mmHg 94%
    07:00 +20°C° 0 mm 0 m/S 691 mmHg 94%
    08:00 +24°C° 0 mm 1 m/S 692 mmHg 86%
    09:00 +25°C° 0 mm 1 m/S 692 mmHg 79%
    10:00 +27°C° 0 mm 1 m/S 692 mmHg 72%
    11:00 +28°C° 0 mm 1 m/S 692 mmHg 68%
    12:00 +28°C° 0 mm 1 m/S 691 mmHg 64%
    13:00 +29°C° 0 mm 2 m/S 691 mmHg 61%
    14:00 +29°C° 0.1 mm 2 m/S 690 mmHg 63%
    15:00 +28°C° 0.1 mm 1 m/S 690 mmHg 65%
    16:00 +28°C° 0.1 mm 1 m/S 689 mmHg 67%
    17:00 +26°C° 0.5 mm 1 m/S 690 mmHg 75%
    18:00 +25°C° 0.5 mm 1 m/S 690 mmHg 84%
    19:00 +23°C° 0.5 mm 1 m/S 690 mmHg 93%
    20:00 +22°C° 0.1 mm 1 m/S 690 mmHg 94%
    21:00 +22°C° 0.1 mm 1 m/S 691 mmHg 95%
    22:00 +22°C° 0.1 mm 1 m/S 691 mmHg 96%
    23:00 +22°C° 0 mm 1 m/S 691 mmHg 96%

    25 Januar, Samstag

    Zeit Temperatur Niederschläge Wind Luftdruck Luftfeuchtigkeit
    00:00 +22°C° 0 mm 1 m/S 691 mmHg 95%
    01:00 +22°C° 0 mm 1 m/S 691 mmHg 95%
    02:00 +22°C° 0 mm 1 m/S 691 mmHg 94%
    03:00 +22°C° 0 mm 1 m/S 690 mmHg 93%
    04:00 +22°C° 0 mm 1 m/S 690 mmHg 92%
    05:00 +22°C° 0 mm 1 m/S 690 mmHg 91%
    06:00 +22°C° 0 mm 1 m/S 691 mmHg 90%
    07:00 +20°C° 0 mm 0 m/S 691 mmHg 90%
    08:00 +23°C° 0 mm 1 m/S 691 mmHg 86%
    09:00 +25°C° 0 mm 1 m/S 692 mmHg 82%
    10:00 +26°C° 0 mm 1 m/S 692 mmHg 78%
    11:00 +27°C° 0 mm 1 m/S 692 mmHg 70%
    12:00 +29°C° 0 mm 1 m/S 691 mmHg 62%
    13:00 +30°C° 0 mm 1 m/S 691 mmHg 54%
    14:00 +30°C° 0 mm 1 m/S 690 mmHg 57%
    15:00 +30°C° 0 mm 2 m/S 690 mmHg 59%
    16:00 +30°C° 0 mm 2 m/S 689 mmHg 62%
    17:00 +28°C° 0.1 mm 2 m/S 689 mmHg 71%
    18:00 +26°C° 0.1 mm 1 m/S 690 mmHg 80%
    19:00 +24°C° 0.1 mm 1 m/S 690 mmHg 88%
    20:00 +23°C° 0 mm 1 m/S 690 mmHg 91%
    21:00 +22°C° 0 mm 1 m/S 691 mmHg 93%
    22:00 +20°C° 0 mm 0 m/S 691 mmHg 95%
    23:00 +20°C° 0 mm 0 m/S 691 mmHg 96%

    26 Januar, Sonntag

    Zeit Temperatur Niederschläge Wind Luftdruck Luftfeuchtigkeit
    00:00 +21°C° 0 mm 1 m/S 691 mmHg 97%
    01:00 +21°C° 0 mm 1 m/S 691 mmHg 98%
    02:00 +22°C° 0 mm 1 m/S 691 mmHg 98%
    03:00 +22°C° 0 mm 1 m/S 691 mmHg 97%
    04:00 +22°C° 0 mm 1 m/S 690 mmHg 97%
    05:00 +22°C° 0 mm 1 m/S 691 mmHg 96%
    06:00 +20°C° 0 mm 0 m/S 691 mmHg 95%
    07:00 +20°C° 0 mm 0 m/S 691 mmHg 95%
    08:00 +23°C° 0 mm 0 m/S 692 mmHg 83%
    09:00 +28°C° 0 mm 1 m/S 692 mmHg 71%
    10:00 +30°C° 0 mm 1 m/S 693 mmHg 59%
    11:00 +31°C° 0 mm 1 m/S 692 mmHg 56%
    12:00 +31°C° 0 mm 1 m/S 692 mmHg 53%
    13:00 +32°C° 0 mm 2 m/S 691 mmHg 51%
    14:00 +31°C° 0.2 mm 2 m/S 690 mmHg 55%
    15:00 +31°C° 0.2 mm 2 m/S 690 mmHg 59%
    16:00 +30°C° 0.2 mm 2 m/S 689 mmHg 63%
    17:00 +28°C° 0.3 mm 2 m/S 689 mmHg 73%
    18:00 +26°C° 0.3 mm 2 m/S 690 mmHg 83%
    19:00 +23°C° 0.3 mm 1 m/S 690 mmHg 92%
    20:00 +23°C° 0.4 mm 1 m/S 691 mmHg 94%
    21:00 +23°C° 0.4 mm 1 m/S 691 mmHg 96%
    22:00 +22°C° 0.4 mm 1 m/S 692 mmHg 98%
    23:00 +22°C° 0 mm 1 m/S 692 mmHg 98%

    27 Januar, Montag

    Zeit Temperatur Niederschläge Wind Luftdruck Luftfeuchtigkeit
    00:00 +22°C° 0 mm 1 m/S 692 mmHg 98%
    01:00 +22°C° 0 mm 1 m/S 691 mmHg 98%
    02:00 +22°C° 0 mm 1 m/S 691 mmHg 98%
    03:00 +22°C° 0 mm 1 m/S 691 mmHg 98%
    04:00 +22°C° 0 mm 1 m/S 691 mmHg 98%
    05:00 +22°C° 0 mm 1 m/S 691 mmHg 98%
    06:00 +20°C° 0 mm 0 m/S 691 mmHg 98%
    07:00 +19°C° 0 mm 0 m/S 691 mmHg 97%
    08:00 +22°C° 0 mm 0 m/S 692 mmHg 85%
    09:00 +27°C° 0 mm 1 m/S 693 mmHg 72%
    10:00 +29°C° 0 mm 1 m/S 693 mmHg 60%
    11:00 +30°C° 0 mm 1 m/S 693 mmHg 56%
    12:00 +31°C° 0 mm 1 m/S 692 mmHg 52%
    13:00 +32°C° 0 mm 2 m/S 692 mmHg 49%
    14:00 +31°C° 0.2 mm 2 m/S 691 mmHg 53%
    15:00 +31°C° 0.2 mm 2 m/S 690 mmHg 56%
    16:00 +30°C° 0.2 mm 2 m/S 690 mmHg 60%
    17:00 +28°C° 0.1 mm 2 m/S 690 mmHg 68%
    18:00 +26°C° 0.1 mm 1 m/S 689 mmHg 76%
    19:00 +24°C° 0.1 mm 1 m/S 689 mmHg 84%
    20:00 +23°C° 0 mm 1 m/S 690 mmHg 86%
    21:00 +23°C° 0 mm 1 m/S 691 mmHg 89%
    22:00 +20°C° 0 mm 0 m/S 691 mmHg 91%
    23:00 +20°C° 0 mm 0 m/S 691 mmHg 93%
    Mehr zeigen